Weather History for MMIA - November, 2012

Change the Weather History Date:

Sunday, November 4, 2012

  Actual Average Record
Temperature  
Mean Temperature 69 °F -  
Max Temperature 72 °F 83 °F 93 °F (2001)
Min Temperature 66 °F 67 °F 64 °F (2010)
Cooling Degree Days 4    
Growing Degree Days 19 (Base 50)    
Moisture  
Dew Point 64 °F    
Average Humidity 85    
Maximum Humidity 94    
Minimum Humidity 69    
Precipitation  
Precipitation 0.04 in - - ()
Sea Level Pressure  
Sea Level Pressure 30.02 in    
Wind  
Wind Speed 8 mph ()    
Max Wind Speed 17 mph    
Max Gust Speed 34 mph    
Visibility 6.6 miles    
Events Fog , Rain    
Averages and records for this station are not official NWS values.
T = Trace of Precipitation, MM = Missing Value Source: Averaged Metar Reports

Daily Weather History Graph

Daily Weather History Graph

Search for Another Location

Airport or City:

Trip Planner

Search our weather history database for the weather conditions in past years. The results will help you decide how hot, cold, wet, or windy it might be!

Date:

Astronomy

Nov. 04, 2012 Rise Set
Actual Time 6:56 AM CST 6:18 PM CST
Civil Twilight 6:33 AM CST 6:41 PM CST
Nautical Twilight 6:07 AM CST 7:07 PM CST
Astronomical Twilight 5:41 AM CST 7:33 PM CST
Moon 11:04 PM CST (11/4) 11:33 AM CST (11/4)
Length of Visible Light 12h 07m
Length of Day
11h 22m
Waning Gibbous, 72% of the Moon is Illuminated
Nov 4
Waning Gibbous
Nov 6
Last Quarter
Nov 13
New
Nov 20
First Quarter
Nov 28
Full

Hourly Weather History & Observations

Time (CST) Temp. Dew Point Humidity Pressure Visibility Wind Dir Wind Speed Gust Speed Precip Events Conditions
5:55 AM 64.4 °F 62.6 °F 94% 30.01 in 6.0 mi NNE 17.3 mph - N/A Rain Light Rain
6:40 AM 64.4 °F 62.6 °F 94% 30.01 in 6.0 mi NNE 13.8 mph - N/A Rain Light Rain
7:42 AM 66.2 °F 64.4 °F 94% 30.00 in 8.0 mi NNE 17.3 mph - N/A Rain Light Rain
8:42 AM 66.2 °F 62.6 °F 88% 30.07 in 6.0 mi Calm Calm - N/A Rain Light Rain
8:47 AM 69 °F 66 °F 87% 29.98 in 4 mi East 4.5 mph - -   Haze
9:47 AM 66.2 °F 64.4 °F 94% 30.06 in 5.0 mi Calm Calm - N/A Fog , Rain Light Rain
10:49 AM 68.0 °F 66.2 °F 94% 30.05 in 5.0 mi Calm Calm - N/A Fog Patches of Fog
11:46 AM 72 °F 69 °F 87% 30.01 in 5 mi SE 2.2 mph - -   Haze
11:46 AM 68.0 °F 64.4 °F 88% 30.05 in 5.0 mi Calm Calm - N/A Fog Patches of Fog
12:52 PM 68.0 °F 66.2 °F 94% 30.03 in 5.0 mi East 9.2 mph - N/A Fog Patches of Fog
1:43 PM 69.8 °F 66.2 °F 88% 30.02 in 6.0 mi Calm Calm - N/A   Overcast
2:45 PM 69.8 °F 64.4 °F 83% 30.00 in 8.0 mi East 9.2 mph - N/A   Overcast
3:50 PM 71.6 °F 64.4 °F 78% 29.98 in 8.0 mi NNE 11.5 mph - N/A   Overcast
4:48 PM 71.6 °F 64.4 °F 78% 29.99 in 8.0 mi NNE 11.5 mph - N/A   Overcast
5:45 PM 71.6 °F 62.6 °F 73% 30.02 in 8.0 mi NNE 13.8 mph 25.3 mph N/A   Overcast
6:41 PM 69.8 °F 62.6 °F 78% 30.02 in 8.0 mi NNE 17.3 mph 28.8 mph N/A   Overcast
7:40 PM 69.8 °F 60.8 °F 73% 30.04 in 8.0 mi North 13.8 mph 28.8 mph N/A   Overcast
8:41 PM 69.8 °F 60.8 °F 73% 30.05 in 8.0 mi NNE 17.3 mph 28.8 mph N/A   Overcast
9:51 PM 71.6 °F 60.8 °F 69% 30.05 in 8.0 mi North 11.5 mph 34.5 mph N/A   Overcast